Regional Weather Roundup
Issued by NWS

Home | Current Version | Previous Version | Text Only | Print | Product List | Glossary On
Versions: 1 2 3 4 5 6 7 8 9 10 11 12 13 14 15 16 17 18 19 20 21 22 23 24 25 26 27 28 29 30 31 32 33 34 35 36 37 38 39 40 41 42 43 44 45 46 47 48 49 50
828
ASUS45 KBOU 150910
RWRCO

WEATHER ROUNDUP FOR COLORADO
NATIONAL WEATHER SERVICE DENVER/BOULDER CO
200 AM MST SUN DEC 15 2019

NOTE: "FAIR" INDICATES FEW OR NO CLOUDS BELOW 12000 FEET WITH NO
SIGNIFICANT WEATHER AND/OR OBSTRUCTIONS TO VISIBILITY.

COZ001>005-013-030-031-151000-
...NORTHWEST COLORADO...

CITY           SKY/WX    TMP DP  RH WIND       PRES   REMARKS
CRAIG          CLOUDY    16  10  77 W3        29.86R
HAYDEN         FLURRIES  16  13  88 SW5       29.85R WCI   9
MEEKER         FAIR       9   4  80 E3        29.84S
RANGELY        FAIR      26  14  62 NE8       29.86S WCI  17
RABBIT EARS PA   N/A    N/A N/A N/A MISG      29.69S
STEAMBOAT SPGS CLOUDY    17  15  91 CALM      29.81R
WALDEN         NOT AVBL
$$

COZ006>008-011-151000-
...WEST CENTRAL VALLEYS...

CITY           SKY/WX    TMP DP  RH WIND       PRES   REMARKS
GRAND JUNCTION FAIR      27  17  66 VRB3      29.80F
MONTROSE       FAIR      28  18  66 NE7       29.80F WCI  21
EAGLE          FAIR      16  14  92 SE3       29.83R
RIFLE          FAIR      27  13  55 NW8       29.83S WCI  19
DELTA          FAIR      31  19  61 SW6       29.78S WCI  25
NUCLA          FAIR      30  25  80 N6        29.77F WCI  24
$$

COZ017>023-064>068-151000-
...SOUTHWEST COLORADO...

CITY           SKY/WX    TMP DP  RH WIND       PRES   REMARKS
DURANGO        LGT SNOW  30  29  96 CALM      29.71F FOG
CORTEZ         CLOUDY    33  25  72 W7        29.74S WCI  27
PAGOSA SPRINGS LGT SNOW  32  32 100 W3        29.70F
TELLURIDE      CLOUDY    23  21  93 SE3       29.72F
WOLF CREEK PAS SNOW      18  18 100 S20G25    29.73F VSB 1/2 WCI   1
$$

COZ009-010-012-014-032>034-037-058>063-151000-
...CENTRAL COLORADO...

CITY           SKY/WX    TMP DP  RH WIND       PRES   REMARKS
ASPEN          MOCLDY    16  12  84 CALM      29.75S
BUENA VISTA    MOCLDY    23  13  65 NW13      29.70R WCI  11
COPPER MTN     CLOUDY    12   5  73 MISG      29.67S
BERTHOUD PASS  CLOUDY     0 -15  50 NW15G23   29.62S WCI -20
DAKOTA HILL    PTSUNNY    5   3  92 NW16G29   29.66S WCI -14
COTTONWOOD PAS CLOUDY    23  12  63 W9        29.69S WCI  13
GUNNISON       MOCLDY    21  18  88 N10       29.74R WCI  10
GRANBY         FAIR      15   7  70 S5        29.77R WCI   7
KREMMLING      FAIR       9   5  85 SE3       29.80S
LEADVILLE      MOCLDY    10   5  80 NE9       29.67F WCI  -3
MONARCH PASS   CLOUDY    12   9  85 MISG      29.77R
SALIDA         MOCLDY    28  24  85 N7        29.78R WCI  20
SUNLIGHT       NOT AVBL
WILKERSON PASS FAIR     N/A N/A N/A N7        29.68F
$$

COZ069>075-151000-
...SAN LUIS VALLEY/SANGRE DE CRISTO MOUNTAINS...

CITY           SKY/WX    TMP DP  RH WIND       PRES   REMARKS
ALAMOSA        LGT SNOW  27  23  85 NE13      29.70S FOG     WCI  16
DEL NORTE      LGT SNOW  27  26  94 CALM      29.71S
LA VETA PASS   SNOW      19  19 100 W7        29.68F VSB 1/2 WCI  10
SAGUACHE       CLOUDY    28  18  64 NW14      29.71R WCI  17
$$

COZ035-036-038>040-151000-
...NORTHERN COLORADO FRONT RANGE...

CITY           SKY/WX    TMP DP  RH WIND       PRES   REMARKS
DENVER INTL AP FAIR      26  23  88 CALM      29.74R
AURORA         PTCLDY    23  22  94 NE3       29.73R
FRONT RANGE AP FAIR      28  26  92 SW3       29.74R
ERIE MUNI ARPT FOG       24  23  96 CALM      29.80S VSB 1/4
BOULDER MUN AP FOG       27  27 100 CALM      29.74R VSB 1/4
CENTENNIAL     FAIR      21  18  88 CALM      29.72S
BROOMFIELD     FAIR      27  21  80 N8        29.74R WCI  18
FORT COLLINS   FOG       16  14  92 S5        29.77R VSB 1/4 WCI   9
LONGMONT       FAIR      23  21  91 CALM      29.77S
$$

COZ041-046-047-076>085-087-088-151000-
...PIKES PEAK/PALMER DIVIDE AND SOUTHERN FOOTHILLS...

CITY           SKY/WX    TMP DP  RH WIND       PRES   REMARKS
COLO. SPRINGS  CLOUDY    27  22  81 W3        29.72S
A. F. ACADEMY  MOCLDY    26  23  89 N6        29.69S WCI  19
SCHRIEVER AFB  NOT AVBL
CHEYENNE MTN   NOT AVBL
ELLICOTT       NOT AVBL
FALCON         FAIR      29  15  55 N13G21    29.72R WCI  19
FORT CARSON    PTCLDY    25  21  87 N5        29.68F WCI  19
LIMON          CLOUDY    24  24 100 NW3       29.73S
MONUMENT HILL  MOCLDY    21  19  93 NW3       29.72R
CANON CITY     NOT AVBL
WALSENBURG     NOT AVBL
TRINIDAD       FAIR      22  19  89 N7        29.70R WCI  13
$$

COZ042>045-048>051-090-091-151000-
...NORTHEAST COLORADO...

CITY           SKY/WX    TMP DP  RH WIND       PRES   REMARKS
GREELEY ARPT   FAIR      14  12  92 CALM      29.78R
AKRON          FAIR      24  21  88 W12       29.74R WCI  13
BURLINGTON     FOG       26  24  92 S6        29.79R VSB 1/2 WCI  19
WRAY           CLOUDY    30  30 100 S9        29.80R WCI  22
YUMA           CLOUDY    28  27  93 S8        29.76R WCI  20
STERLING       FAIR      25  25 100 W6        29.76R WCI  18
HOLYOKE        CLOUDY    32  30  93 S9        29.76S WCI  24
FORT MORGAN    FAIR      26  23  91 NW13G21   29.77R WCI  15
$$

COZ086-089-092>099-151000-
...SOUTHEAST COLORADO...

CITY           SKY/WX    TMP DP  RH WIND       PRES   REMARKS
PUEBLO         CLOUDY    29  24  82 E9        29.73F WCI  20
LA JUNTA       FOG       26  24  92 NE9       29.74S VSB 3/4 WCI  17
LAMAR          FOG       26  24  92 NE8       29.75S VSB 1   WCI  18
SPRINGFIELD      N/A     26  25  96 NE7       29.71R WCI  18
$$




USA.gov is the U.S. government's official web portal to all federal, state and local government web resources and services.